Year,Month,Day,Hour,Minute,Value (Times are PST for temperature in C)
2020,03,04,00,00,2.70
2020,03,04,00,01,2.60
2020,03,04,00,02,2.60
2020,03,04,00,03,2.60
2020,03,04,00,04,2.60
2020,03,04,00,05,2.60
2020,03,04,00,06,2.60
2020,03,04,00,07,2.50
2020,03,04,00,08,2.50
2020,03,04,00,09,2.50
2020,03,04,00,10,2.50
2020,03,04,00,11,2.40
2020,03,04,00,12,2.50
2020,03,04,00,13,2.50
2020,03,04,00,14,2.50
2020,03,04,00,15,2.50
2020,03,04,00,16,2.60
2020,03,04,00,17,2.60
2020,03,04,00,18,2.60
2020,03,04,00,19,2.60
2020,03,04,00,20,2.70
2020,03,04,00,21,2.60
2020,03,04,00,22,2.60
2020,03,04,00,23,2.60
2020,03,04,00,24,2.60
2020,03,04,00,25,2.60
2020,03,04,00,26,2.60
2020,03,04,00,27,2.60
2020,03,04,00,28,2.60
2020,03,04,00,29,2.60
2020,03,04,00,30,2.60
2020,03,04,00,31,2.60
2020,03,04,00,32,2.60
2020,03,04,00,33,2.60
2020,03,04,00,34,2.60
2020,03,04,00,35,2.60
2020,03,04,00,36,2.60
2020,03,04,00,37,2.60
2020,03,04,00,38,2.60
2020,03,04,00,39,2.60
2020,03,04,00,40,2.60
2020,03,04,00,41,2.60
2020,03,04,00,42,2.60
2020,03,04,00,43,2.60
2020,03,04,00,44,2.60
2020,03,04,00,45,2.60
2020,03,04,00,46,2.60
2020,03,04,00,47,2.60
2020,03,04,00,48,2.60
2020,03,04,00,49,2.60
2020,03,04,00,50,2.60
2020,03,04,00,51,2.60
2020,03,04,00,52,2.60
2020,03,04,00,53,2.60
2020,03,04,00,54,2.60
2020,03,04,00,55,2.60
2020,03,04,00,56,2.60
2020,03,04,00,57,2.60
2020,03,04,00,58,2.60
2020,03,04,00,59,2.60
2020,03,04,01,00,2.60
2020,03,04,01,01,2.60
2020,03,04,01,02,2.60
2020,03,04,01,03,2.70
2020,03,04,01,04,2.70
2020,03,04,01,05,2.70
2020,03,04,01,06,2.70
2020,03,04,01,07,2.70
2020,03,04,01,08,2.70
2020,03,04,01,09,2.70
2020,03,04,01,10,2.70
2020,03,04,01,11,2.70
2020,03,04,01,12,2.70
2020,03,04,01,13,2.70
2020,03,04,01,14,2.70
2020,03,04,01,15,2.70
2020,03,04,01,16,2.70
2020,03,04,01,17,2.70
2020,03,04,01,18,2.70
2020,03,04,01,19,2.70
2020,03,04,01,20,2.70
2020,03,04,01,21,2.80
2020,03,04,01,22,2.80
2020,03,04,01,23,2.80
2020,03,04,01,24,2.80
2020,03,04,01,25,2.80
2020,03,04,01,26,2.80
2020,03,04,01,27,2.80
2020,03,04,01,28,2.80
2020,03,04,01,29,2.80
2020,03,04,01,30,2.80
2020,03,04,01,31,2.80
2020,03,04,01,32,2.80
2020,03,04,01,33,2.80
2020,03,04,01,34,2.80
2020,03,04,01,35,2.80
2020,03,04,01,36,2.80
2020,03,04,01,37,2.80
2020,03,04,01,38,2.80
2020,03,04,01,39,2.80
2020,03,04,01,40,2.80
2020,03,04,01,41,2.80
2020,03,04,01,42,2.80
2020,03,04,01,43,2.80
2020,03,04,01,44,2.80
2020,03,04,01,45,2.80
2020,03,04,01,46,2.80
2020,03,04,01,47,2.80
2020,03,04,01,48,2.80
2020,03,04,01,49,2.80
2020,03,04,01,50,2.80
2020,03,04,01,51,2.80
2020,03,04,01,52,2.80
2020,03,04,01,53,2.80
2020,03,04,01,54,2.80
2020,03,04,01,55,2.80
2020,03,04,01,56,2.70
2020,03,04,01,57,2.70
2020,03,04,01,58,2.70
2020,03,04,01,59,2.70
2020,03,04,02,00,2.70
2020,03,04,02,01,2.70
2020,03,04,02,02,2.70
2020,03,04,02,03,2.70
2020,03,04,02,04,2.70
2020,03,04,02,05,2.70
2020,03,04,02,06,2.60
2020,03,04,02,07,2.60
2020,03,04,02,08,2.60
2020,03,04,02,09,2.60
2020,03,04,02,10,2.60
2020,03,04,02,11,2.60
2020,03,04,02,12,2.60
2020,03,04,02,13,2.60
2020,03,04,02,14,2.60
2020,03,04,02,15,2.60
2020,03,04,02,16,2.60
2020,03,04,02,17,2.60
2020,03,04,02,18,2.60
2020,03,04,02,19,2.50
2020,03,04,02,20,2.50
2020,03,04,02,21,2.50
2020,03,04,02,22,2.50
2020,03,04,02,23,2.50
2020,03,04,02,24,2.40
2020,03,04,02,25,2.40
2020,03,04,02,26,2.40
2020,03,04,02,27,2.30
2020,03,04,02,28,2.30
2020,03,04,02,29,2.30
2020,03,04,02,30,2.30
2020,03,04,02,31,2.30
2020,03,04,02,32,2.30
2020,03,04,02,33,2.30
2020,03,04,02,34,2.20
2020,03,04,02,35,2.20
2020,03,04,02,36,2.20
2020,03,04,02,37,2.20
2020,03,04,02,38,2.20
2020,03,04,02,39,2.20
2020,03,04,02,40,2.20
2020,03,04,02,41,2.20
2020,03,04,02,42,2.20
2020,03,04,02,43,2.20
2020,03,04,02,44,2.20
2020,03,04,02,45,2.20
2020,03,04,02,46,2.20
2020,03,04,02,47,2.20
2020,03,04,02,48,2.20
2020,03,04,02,49,2.10
2020,03,04,02,50,2.10
2020,03,04,02,51,2.10
2020,03,04,02,52,2.10
2020,03,04,02,53,2.10
2020,03,04,02,54,2.10
2020,03,04,02,55,2.10
2020,03,04,02,56,2.10
2020,03,04,02,57,2.10
2020,03,04,02,58,2.10
2020,03,04,02,59,2.10
2020,03,04,03,00,2.10
2020,03,04,03,01,2.10
2020,03,04,03,02,2.10
2020,03,04,03,03,2.10
2020,03,04,03,04,2.10
2020,03,04,03,05,2.10
2020,03,04,03,06,2.10
2020,03,04,03,07,2.00
2020,03,04,03,08,2.00
2020,03,04,03,09,2.00
2020,03,04,03,10,2.00
2020,03,04,03,11,2.00
2020,03,04,03,12,2.00
2020,03,04,03,13,1.90
2020,03,04,03,14,1.90
2020,03,04,03,15,1.90
2020,03,04,03,16,1.90
2020,03,04,03,17,1.90
2020,03,04,03,18,1.90
2020,03,04,03,19,1.80
2020,03,04,03,20,1.80
2020,03,04,03,21,1.80
2020,03,04,03,22,1.80
2020,03,04,03,23,1.70
2020,03,04,03,24,1.70
2020,03,04,03,25,1.70
2020,03,04,03,26,1.70
2020,03,04,03,27,1.70
2020,03,04,03,28,1.60
2020,03,04,03,29,1.60
2020,03,04,03,30,1.60
2020,03,04,03,31,1.60
2020,03,04,03,32,1.60
2020,03,04,03,33,1.50
2020,03,04,03,34,1.50
2020,03,04,03,35,1.50
2020,03,04,03,36,1.40
2020,03,04,03,37,1.40
2020,03,04,03,38,1.40
2020,03,04,03,39,1.40
2020,03,04,03,40,1.30
2020,03,04,03,41,1.30
2020,03,04,03,42,1.30
2020,03,04,03,43,1.30
2020,03,04,03,44,1.20
2020,03,04,03,45,1.20
2020,03,04,03,46,1.20
2020,03,04,03,47,1.20
2020,03,04,03,48,1.20
2020,03,04,03,49,1.10
2020,03,04,03,50,1.10
2020,03,04,03,51,1.10
2020,03,04,03,52,1.10
2020,03,04,03,53,1.10
2020,03,04,03,54,1.10
2020,03,04,03,55,1.10
2020,03,04,03,56,1.10
2020,03,04,03,57,1.10
2020,03,04,03,58,1.10
2020,03,04,03,59,1.10
2020,03,04,04,00,1.10
2020,03,04,04,01,1.10
2020,03,04,04,02,1.10
2020,03,04,04,03,1.10
2020,03,04,04,04,1.10
2020,03,04,04,05,1.10
2020,03,04,04,06,1.10
2020,03,04,04,07,1.00
2020,03,04,04,08,1.00
2020,03,04,04,09,1.00
2020,03,04,04,10,1.00
2020,03,04,04,11,1.00
2020,03,04,04,12,1.00
2020,03,04,04,13,1.10
2020,03,04,04,14,1.10
2020,03,04,04,15,1.10
2020,03,04,04,16,1.10
2020,03,04,04,17,1.10
2020,03,04,04,18,1.10
2020,03,04,04,19,1.10
2020,03,04,04,20,1.10
2020,03,04,04,21,1.10
2020,03,04,04,22,1.10
2020,03,04,04,23,1.10
2020,03,04,04,24,1.10
2020,03,04,04,25,1.10
2020,03,04,04,26,1.10
2020,03,04,04,27,1.10
2020,03,04,04,28,1.10
2020,03,04,04,29,1.10
2020,03,04,04,30,1.20
2020,03,04,04,31,1.20
2020,03,04,04,32,1.20
2020,03,04,04,33,1.20
2020,03,04,04,34,1.20
2020,03,04,04,35,1.20
2020,03,04,04,36,1.20
2020,03,04,04,37,1.20
2020,03,04,04,38,1.20
2020,03,04,04,39,1.20
2020,03,04,04,40,1.20
2020,03,04,04,41,1.20
2020,03,04,04,42,1.20
2020,03,04,04,43,1.20
2020,03,04,04,44,1.20
2020,03,04,04,45,1.20
2020,03,04,04,46,1.20
2020,03,04,04,47,1.20
2020,03,04,04,48,1.20
2020,03,04,04,49,1.20
2020,03,04,04,50,1.20
2020,03,04,04,51,1.20
2020,03,04,04,52,1.20
2020,03,04,04,53,1.20
2020,03,04,04,54,1.20
2020,03,04,04,55,1.10
2020,03,04,04,56,1.10
2020,03,04,04,57,1.10
2020,03,04,04,58,1.10
2020,03,04,04,59,1.10
2020,03,04,05,00,1.10
2020,03,04,05,01,1.10
2020,03,04,05,02,1.10
2020,03,04,05,03,1.10
2020,03,04,05,04,1.10
2020,03,04,05,05,1.10
2020,03,04,05,06,1.10
2020,03,04,05,07,1.10
2020,03,04,05,08,1.10
2020,03,04,05,09,1.10
2020,03,04,05,10,1.00
2020,03,04,05,11,1.10
2020,03,04,05,12,1.00
2020,03,04,05,13,1.00
2020,03,04,05,14,1.00
2020,03,04,05,15,1.00
2020,03,04,05,16,1.10
2020,03,04,05,17,1.00
2020,03,04,05,18,1.00
2020,03,04,05,19,1.00
2020,03,04,05,20,1.00
2020,03,04,05,21,0.90
2020,03,04,05,22,0.90
2020,03,04,05,23,0.90
2020,03,04,05,24,0.90
2020,03,04,05,25,0.90
2020,03,04,05,26,0.90
2020,03,04,05,27,0.90
2020,03,04,05,28,0.90
2020,03,04,05,29,0.90
2020,03,04,05,30,0.90
2020,03,04,05,31,1.00
2020,03,04,05,32,1.00
2020,03,04,05,33,1.00
2020,03,04,05,34,1.00
2020,03,04,05,35,1.00
2020,03,04,05,36,1.00
2020,03,04,05,37,1.00
2020,03,04,05,38,1.00
2020,03,04,05,39,0.90
2020,03,04,05,40,0.90
2020,03,04,05,41,0.90
2020,03,04,05,42,0.90
2020,03,04,05,43,0.90
2020,03,04,05,44,0.90
2020,03,04,05,45,0.90
2020,03,04,05,46,0.90
2020,03,04,05,47,0.90
2020,03,04,05,48,0.90
2020,03,04,05,49,0.90
2020,03,04,05,50,0.80
2020,03,04,05,51,0.80
2020,03,04,05,52,0.80
2020,03,04,05,53,0.80
2020,03,04,05,54,0.90
2020,03,04,05,55,0.90
2020,03,04,05,56,0.90
2020,03,04,05,57,0.90
2020,03,04,05,58,0.80
2020,03,04,05,59,0.80
2020,03,04,06,00,0.80
2020,03,04,06,01,0.80
2020,03,04,06,02,0.80
2020,03,04,06,03,0.90
2020,03,04,06,04,0.90
2020,03,04,06,05,0.90
2020,03,04,06,06,0.90
2020,03,04,06,07,0.90
2020,03,04,06,08,0.90
2020,03,04,06,09,0.90
2020,03,04,06,10,0.90
2020,03,04,06,11,0.90
2020,03,04,06,12,0.90
2020,03,04,06,13,0.90
2020,03,04,06,14,0.90
2020,03,04,06,15,0.90
2020,03,04,06,16,0.90
2020,03,04,06,17,0.90
2020,03,04,06,18,0.90
2020,03,04,06,19,0.90
2020,03,04,06,20,0.90
2020,03,04,06,21,0.90
2020,03,04,06,22,0.90
2020,03,04,06,23,0.90
2020,03,04,06,24,0.90
2020,03,04,06,25,0.90
2020,03,04,06,26,0.90
2020,03,04,06,27,0.90
2020,03,04,06,28,0.90
2020,03,04,06,29,0.90
2020,03,04,06,30,0.90
2020,03,04,06,31,0.90
2020,03,04,06,32,0.90
2020,03,04,06,33,0.90
2020,03,04,06,34,0.90
2020,03,04,06,35,0.90
2020,03,04,06,36,0.90
2020,03,04,06,37,0.80
2020,03,04,06,38,0.80
2020,03,04,06,39,0.80
2020,03,04,06,40,0.80
2020,03,04,06,41,0.80
2020,03,04,06,42,0.80
2020,03,04,06,43,0.80
2020,03,04,06,44,0.80
2020,03,04,06,45,0.80
2020,03,04,06,46,0.80
2020,03,04,06,47,0.80
2020,03,04,06,48,0.80
2020,03,04,06,49,0.80
2020,03,04,06,50,0.80
2020,03,04,06,51,0.80
2020,03,04,06,52,0.80
2020,03,04,06,53,0.80
2020,03,04,06,54,0.70
2020,03,04,06,55,0.70
2020,03,04,06,56,0.70
2020,03,04,06,57,0.70
2020,03,04,06,58,0.70
2020,03,04,06,59,0.70
2020,03,04,07,00,0.70
2020,03,04,07,01,0.70
2020,03,04,07,02,0.70
2020,03,04,07,03,0.80
2020,03,04,07,04,0.80
2020,03,04,07,05,0.80
2020,03,04,07,06,0.80
2020,03,04,07,07,0.80
2020,03,04,07,08,0.80
2020,03,04,07,09,0.80
2020,03,04,07,10,0.80
2020,03,04,07,11,0.80
2020,03,04,07,12,0.80
2020,03,04,07,13,0.80
2020,03,04,07,14,0.80
2020,03,04,07,15,0.80
2020,03,04,07,16,0.80
2020,03,04,07,17,0.80
2020,03,04,07,18,0.80
2020,03,04,07,19,0.80
2020,03,04,07,20,0.90
2020,03,04,07,21,0.90
2020,03,04,07,22,0.90
2020,03,04,07,23,0.90
2020,03,04,07,24,0.90
2020,03,04,07,25,0.90
2020,03,04,07,26,0.80
2020,03,04,07,27,0.80
2020,03,04,07,28,0.80
2020,03,04,07,29,0.80
2020,03,04,07,30,0.80
2020,03,04,07,31,0.80
2020,03,04,07,32,0.80
2020,03,04,07,33,0.80
2020,03,04,07,34,0.80
2020,03,04,07,35,0.80
2020,03,04,07,36,0.80
2020,03,04,07,37,0.80
2020,03,04,07,38,0.70
2020,03,04,07,39,0.70
2020,03,04,07,40,0.70
2020,03,04,07,41,0.70
2020,03,04,07,42,0.70
2020,03,04,07,43,0.70
2020,03,04,07,44,0.70
2020,03,04,07,45,0.80
2020,03,04,07,46,0.80
2020,03,04,07,47,0.80
2020,03,04,07,48,0.80
2020,03,04,07,49,0.80
2020,03,04,07,50,0.80
2020,03,04,07,51,0.80
2020,03,04,07,52,0.80
2020,03,04,07,53,0.80
2020,03,04,07,54,0.80
2020,03,04,07,55,0.80
2020,03,04,07,56,0.80
2020,03,04,07,57,0.80
2020,03,04,07,58,0.80
2020,03,04,07,59,0.80
2020,03,04,08,00,0.80
2020,03,04,08,01,0.80
2020,03,04,08,02,0.80
2020,03,04,08,03,0.80
2020,03,04,08,04,0.80
2020,03,04,08,05,0.80
2020,03,04,08,06,0.80
2020,03,04,08,07,0.80
2020,03,04,08,08,0.80
2020,03,04,08,09,0.80
2020,03,04,08,10,0.80
2020,03,04,08,11,0.80
2020,03,04,08,12,0.90
2020,03,04,08,13,0.90
2020,03,04,08,14,0.90
2020,03,04,08,15,0.90
2020,03,04,08,16,0.90
2020,03,04,08,17,0.90
2020,03,04,08,18,0.90
2020,03,04,08,19,0.90
2020,03,04,08,20,0.90
2020,03,04,08,21,0.90
2020,03,04,08,22,0.90
2020,03,04,08,23,1.00
2020,03,04,08,24,1.00
2020,03,04,08,25,1.00
2020,03,04,08,26,1.00
2020,03,04,08,27,1.00
2020,03,04,08,28,1.00
2020,03,04,08,29,1.00
2020,03,04,08,30,1.00
2020,03,04,08,31,1.00
2020,03,04,08,32,1.00
2020,03,04,08,33,1.00
2020,03,04,08,34,1.00
2020,03,04,08,35,0.90
2020,03,04,08,36,0.90
2020,03,04,08,37,1.00
2020,03,04,08,38,1.00
2020,03,04,08,39,1.00
2020,03,04,08,40,1.10
2020,03,04,08,41,1.10
2020,03,04,08,42,1.10
2020,03,04,08,43,1.20
2020,03,04,08,44,1.30
2020,03,04,08,45,1.30
2020,03,04,08,46,1.40
2020,03,04,08,47,1.50
2020,03,04,08,48,1.60
2020,03,04,08,49,1.70
2020,03,04,08,50,1.70
2020,03,04,08,51,1.80
2020,03,04,08,52,1.80
2020,03,04,08,53,1.90
2020,03,04,08,54,1.90
2020,03,04,08,55,1.90
2020,03,04,08,56,2.00
2020,03,04,08,57,2.10
2020,03,04,08,58,2.20
2020,03,04,08,59,2.20
2020,03,04,09,00,2.30
2020,03,04,09,01,2.30
2020,03,04,09,02,2.30
2020,03,04,09,03,2.30
2020,03,04,09,04,2.40
2020,03,04,09,05,2.40
2020,03,04,09,06,2.40
2020,03,04,09,07,2.40
2020,03,04,09,08,2.50
2020,03,04,09,09,2.50
2020,03,04,09,10,2.60
2020,03,04,09,11,2.70
2020,03,04,09,12,2.70
2020,03,04,09,13,2.80
2020,03,04,09,14,2.80
2020,03,04,09,15,2.80
2020,03,04,09,16,2.90
2020,03,04,09,17,2.90
2020,03,04,09,18,2.90
2020,03,04,09,19,2.90
2020,03,04,09,20,3.00
2020,03,04,09,21,3.00
2020,03,04,09,22,3.10
2020,03,04,09,23,3.20
2020,03,04,09,24,3.30
2020,03,04,09,25,3.40
2020,03,04,09,26,3.40
2020,03,04,09,27,3.50
2020,03,04,09,28,3.60
2020,03,04,09,29,3.60
2020,03,04,09,30,3.60
2020,03,04,09,31,3.60
2020,03,04,09,32,3.60
2020,03,04,09,33,3.60
2020,03,04,09,34,3.50
2020,03,04,09,35,3.50
2020,03,04,09,36,3.40
2020,03,04,09,37,3.40
2020,03,04,09,38,3.50
2020,03,04,09,39,3.50
2020,03,04,09,40,3.50
2020,03,04,09,41,3.50
2020,03,04,09,42,3.50
2020,03,04,09,43,3.50
2020,03,04,09,44,3.50
2020,03,04,09,45,3.50
2020,03,04,09,46,3.60
2020,03,04,09,47,3.60
2020,03,04,09,48,3.60
2020,03,04,09,49,3.60
2020,03,04,09,50,3.60
2020,03,04,09,51,3.60
2020,03,04,09,52,3.70
2020,03,04,09,53,3.70
2020,03,04,09,54,3.70
2020,03,04,09,55,3.70
2020,03,04,09,56,3.80
2020,03,04,09,57,3.80
2020,03,04,09,58,3.90
2020,03,04,09,59,3.90
2020,03,04,10,00,3.90
2020,03,04,10,01,3.90
2020,03,04,10,02,4.00
2020,03,04,10,03,4.00
2020,03,04,10,04,4.10
2020,03,04,10,05,4.10
2020,03,04,10,06,4.10
2020,03,04,10,07,4.20
2020,03,04,10,08,4.20
2020,03,04,10,09,4.30
2020,03,04,10,10,4.30
2020,03,04,10,11,4.30
2020,03,04,10,12,4.40
2020,03,04,10,13,4.40
2020,03,04,10,14,4.40
2020,03,04,10,15,4.40
2020,03,04,10,16,4.40
2020,03,04,10,17,4.50
2020,03,04,10,18,4.50
2020,03,04,10,19,4.60
2020,03,04,10,20,4.60
2020,03,04,10,21,4.60
2020,03,04,10,22,4.70
2020,03,04,10,23,4.70
2020,03,04,10,24,4.80
2020,03,04,10,25,4.90
2020,03,04,10,26,5.00
2020,03,04,10,27,5.00
2020,03,04,10,28,5.10
2020,03,04,10,29,5.20
2020,03,04,10,30,5.20
2020,03,04,10,31,5.20
2020,03,04,10,32,5.30
2020,03,04,10,33,5.30
2020,03,04,10,34,5.40
2020,03,04,10,35,5.40
2020,03,04,10,36,5.50
2020,03,04,10,37,5.50
2020,03,04,10,38,5.60
2020,03,04,10,39,5.60
2020,03,04,10,40,5.70
2020,03,04,10,41,5.70
2020,03,04,10,42,5.80
2020,03,04,10,43,5.80
2020,03,04,10,44,5.80
2020,03,04,10,45,5.70
2020,03,04,10,46,5.70
2020,03,04,10,47,5.60
2020,03,04,10,48,5.70
2020,03,04,10,49,5.70
2020,03,04,10,50,5.70
2020,03,04,10,51,5.70
2020,03,04,10,52,5.60
2020,03,04,10,53,5.60
2020,03,04,10,54,5.60
2020,03,04,10,55,5.60
2020,03,04,10,56,5.60
2020,03,04,10,57,5.60
2020,03,04,10,58,5.60
2020,03,04,10,59,5.60
2020,03,04,11,00,5.60
2020,03,04,11,01,5.60
2020,03,04,11,02,5.60
2020,03,04,11,03,5.50
2020,03,04,11,04,5.50
2020,03,04,11,05,5.50
2020,03,04,11,06,5.50
2020,03,04,11,07,5.50
2020,03,04,11,08,5.50
2020,03,04,11,09,5.50
2020,03,04,11,10,5.50
2020,03,04,11,11,5.60
2020,03,04,11,12,5.60
2020,03,04,11,13,5.60
2020,03,04,11,14,5.60
2020,03,04,11,15,5.70
2020,03,04,11,16,5.70
2020,03,04,11,17,5.80
2020,03,04,11,18,5.80
2020,03,04,11,19,5.80
2020,03,04,11,20,5.80
2020,03,04,11,21,5.90
2020,03,04,11,22,5.90
2020,03,04,11,23,6.00
2020,03,04,11,24,6.10
2020,03,04,11,25,6.10
2020,03,04,11,26,6.10
2020,03,04,11,27,6.10
2020,03,04,11,28,6.20
2020,03,04,11,29,6.20
2020,03,04,11,30,6.20
2020,03,04,11,31,6.20
2020,03,04,11,32,6.20
2020,03,04,11,33,6.30
2020,03,04,11,34,6.30
2020,03,04,11,35,6.30
2020,03,04,11,36,6.30
2020,03,04,11,37,6.30
2020,03,04,11,38,6.30
2020,03,04,11,39,6.30
2020,03,04,11,40,6.30
2020,03,04,11,41,6.30
2020,03,04,11,42,6.30
2020,03,04,11,43,6.30
2020,03,04,11,44,6.30
2020,03,04,11,45,6.30
2020,03,04,11,46,6.30
2020,03,04,11,47,6.30
2020,03,04,11,48,6.30
2020,03,04,11,49,6.30
2020,03,04,11,50,6.40
2020,03,04,11,51,6.40
2020,03,04,11,52,6.40
2020,03,04,11,53,6.50
2020,03,04,11,54,6.50
2020,03,04,11,55,6.50
2020,03,04,11,56,6.60
2020,03,04,11,57,6.60
2020,03,04,11,58,6.70
2020,03,04,11,59,6.70
2020,03,04,12,00,6.80
2020,03,04,12,01,6.80
2020,03,04,12,02,6.80
2020,03,04,12,03,6.80
2020,03,04,12,04,6.80
2020,03,04,12,05,6.80
2020,03,04,12,06,6.80
2020,03,04,12,07,6.80
2020,03,04,12,08,6.80
2020,03,04,12,09,6.70
2020,03,04,12,10,6.70
2020,03,04,12,11,6.70
2020,03,04,12,12,6.60
2020,03,04,12,13,6.60
2020,03,04,12,14,6.50
2020,03,04,12,15,6.50
2020,03,04,12,16,6.40
2020,03,04,12,17,6.40
2020,03,04,12,18,6.40
2020,03,04,12,19,6.40
2020,03,04,12,20,6.40
2020,03,04,12,21,6.40
2020,03,04,12,22,6.40
2020,03,04,12,23,6.40
2020,03,04,12,24,6.40
2020,03,04,12,25,6.40
2020,03,04,12,26,6.40
2020,03,04,12,27,6.40
2020,03,04,12,28,6.40
2020,03,04,12,29,6.40
2020,03,04,12,30,6.40
2020,03,04,12,31,6.40
2020,03,04,12,32,6.50
2020,03,04,12,33,6.50
2020,03,04,12,34,6.60
2020,03,04,12,35,6.60
2020,03,04,12,36,6.60
2020,03,04,12,37,6.60
2020,03,04,12,38,6.50
2020,03,04,12,39,6.50
2020,03,04,12,40,6.50
2020,03,04,12,41,6.50
2020,03,04,12,42,6.50
2020,03,04,12,43,6.50
2020,03,04,12,44,6.60
2020,03,04,12,45,6.60
2020,03,04,12,46,6.70
2020,03,04,12,47,6.70
2020,03,04,12,48,6.80
2020,03,04,12,49,6.80
2020,03,04,12,50,6.80
2020,03,04,12,51,6.80
2020,03,04,12,52,6.80
2020,03,04,12,53,6.90
2020,03,04,12,54,6.90
2020,03,04,12,55,6.90
2020,03,04,12,56,6.90
2020,03,04,12,57,6.90
2020,03,04,12,58,6.90
2020,03,04,12,59,6.90
2020,03,04,13,00,6.90
2020,03,04,13,01,6.90
2020,03,04,13,02,6.90
2020,03,04,13,03,6.90
2020,03,04,13,04,6.90
2020,03,04,13,05,6.90
2020,03,04,13,06,6.90
2020,03,04,13,07,7.00
2020,03,04,13,08,7.00
2020,03,04,13,09,7.00
2020,03,04,13,10,7.10
2020,03,04,13,11,7.10
2020,03,04,13,12,7.10
2020,03,04,13,13,7.10
2020,03,04,13,14,7.20
2020,03,04,13,15,7.20
2020,03,04,13,16,7.20
2020,03,04,13,17,7.20
2020,03,04,13,18,7.20
2020,03,04,13,19,7.20
2020,03,04,13,20,7.20
2020,03,04,13,21,7.20
2020,03,04,13,22,7.20
2020,03,04,13,23,7.20
2020,03,04,13,24,7.10
2020,03,04,13,25,7.10
2020,03,04,13,26,7.10
2020,03,04,13,27,7.10
2020,03,04,13,28,7.10
2020,03,04,13,29,7.10
2020,03,04,13,30,7.10
2020,03,04,13,31,7.10
2020,03,04,13,32,7.10
2020,03,04,13,33,7.10
2020,03,04,13,34,7.00
2020,03,04,13,35,7.00
2020,03,04,13,36,7.00
2020,03,04,13,37,7.00
2020,03,04,13,38,7.10
2020,03,04,13,39,7.10
2020,03,04,13,40,7.10
2020,03,04,13,41,7.00
2020,03,04,13,42,7.00
2020,03,04,13,43,7.10
2020,03,04,13,44,7.10
2020,03,04,13,45,7.10
2020,03,04,13,46,7.10
2020,03,04,13,47,7.10
2020,03,04,13,48,7.10
2020,03,04,13,49,7.20
2020,03,04,13,50,7.20
2020,03,04,13,51,7.20
2020,03,04,13,52,7.20
2020,03,04,13,53,7.20
2020,03,04,13,54,7.10
2020,03,04,13,55,7.10
2020,03,04,13,56,7.10
2020,03,04,13,57,7.10
2020,03,04,13,58,7.10
2020,03,04,13,59,7.10
2020,03,04,14,00,7.00
2020,03,04,14,01,7.00
2020,03,04,14,02,7.00
2020,03,04,14,03,6.90
2020,03,04,14,04,6.90
2020,03,04,14,05,6.90
2020,03,04,14,06,6.90
2020,03,04,14,07,6.90
2020,03,04,14,08,6.90
2020,03,04,14,09,6.90
2020,03,04,14,10,6.90
2020,03,04,14,11,6.80
2020,03,04,14,12,6.80
2020,03,04,14,13,6.80
2020,03,04,14,14,6.80
2020,03,04,14,15,6.80
2020,03,04,14,16,6.80
2020,03,04,14,17,6.80
2020,03,04,14,18,6.80
2020,03,04,14,19,6.80
2020,03,04,14,20,6.80
2020,03,04,14,21,6.80
2020,03,04,14,22,6.80
2020,03,04,14,23,6.80
2020,03,04,14,24,6.80
2020,03,04,14,25,6.70
2020,03,04,14,26,6.70
2020,03,04,14,27,6.70
2020,03,04,14,28,6.70
2020,03,04,14,29,6.70
2020,03,04,14,30,6.70
2020,03,04,14,31,6.70
2020,03,04,14,32,6.70
2020,03,04,14,33,6.70
2020,03,04,14,34,6.70
2020,03,04,14,35,6.70
2020,03,04,14,36,6.70
2020,03,04,14,37,6.70
2020,03,04,14,38,6.70
2020,03,04,14,39,6.70
2020,03,04,14,40,6.70
2020,03,04,14,41,6.70
2020,03,04,14,42,6.70
2020,03,04,14,43,6.70
2020,03,04,14,44,6.70
2020,03,04,14,45,6.70
2020,03,04,14,46,6.70
2020,03,04,14,47,6.60
2020,03,04,14,48,6.60
2020,03,04,14,49,6.60
2020,03,04,14,50,6.60
2020,03,04,14,51,6.60
2020,03,04,14,52,6.60
2020,03,04,14,53,6.60
2020,03,04,14,54,6.60
2020,03,04,14,55,6.60
2020,03,04,14,56,6.60
2020,03,04,14,57,6.60
2020,03,04,14,58,6.60
2020,03,04,14,59,6.50
2020,03,04,15,00,6.50
2020,03,04,15,01,6.50
2020,03,04,15,02,6.50
2020,03,04,15,03,6.50
2020,03,04,15,04,6.40
2020,03,04,15,05,6.40
2020,03,04,15,06,6.40
2020,03,04,15,07,6.30
2020,03,04,15,08,6.30
2020,03,04,15,09,6.20
2020,03,04,15,10,6.20
2020,03,04,15,11,6.10
2020,03,04,15,12,6.10
2020,03,04,15,13,6.10
2020,03,04,15,14,6.10
2020,03,04,15,15,6.10
2020,03,04,15,16,6.00
2020,03,04,15,17,6.00
2020,03,04,15,18,5.90
2020,03,04,15,19,5.90
2020,03,04,15,20,5.90
2020,03,04,15,21,5.90
2020,03,04,15,22,5.90
2020,03,04,15,23,5.80
2020,03,04,15,24,5.80
2020,03,04,15,25,5.80
2020,03,04,15,26,5.80
2020,03,04,15,27,5.80
2020,03,04,15,28,5.80
2020,03,04,15,29,5.70
2020,03,04,15,30,5.70
2020,03,04,15,31,5.70
2020,03,04,15,32,5.70
2020,03,04,15,33,5.70
2020,03,04,15,34,5.70
2020,03,04,15,35,5.70
2020,03,04,15,36,5.70
2020,03,04,15,37,5.70
2020,03,04,15,38,5.70
2020,03,04,15,39,5.70
2020,03,04,15,40,5.60
2020,03,04,15,41,5.60
2020,03,04,15,42,5.60
2020,03,04,15,43,5.50
2020,03,04,15,44,5.50
2020,03,04,15,45,5.50
2020,03,04,15,46,5.40
2020,03,04,15,47,5.40
2020,03,04,15,48,5.40
2020,03,04,15,49,5.40
2020,03,04,15,50,5.30
2020,03,04,15,51,5.30
2020,03,04,15,52,5.40
2020,03,04,15,53,5.40
2020,03,04,15,54,5.40
2020,03,04,15,55,5.40
2020,03,04,15,56,5.40
2020,03,04,15,57,5.40
2020,03,04,15,58,5.40
2020,03,04,15,59,5.40
2020,03,04,16,00,5.40
2020,03,04,16,01,5.40
2020,03,04,16,02,5.50
2020,03,04,16,03,5.50
2020,03,04,16,04,5.50
2020,03,04,16,05,5.50
2020,03,04,16,06,5.50
2020,03,04,16,07,5.50
2020,03,04,16,08,5.50
2020,03,04,16,09,5.50
2020,03,04,16,10,5.50
2020,03,04,16,11,5.50
2020,03,04,16,12,5.50
2020,03,04,16,13,5.50
2020,03,04,16,14,5.50
2020,03,04,16,15,5.60
2020,03,04,16,16,5.60
2020,03,04,16,17,5.60
2020,03,04,16,18,5.60
2020,03,04,16,19,5.60
2020,03,04,16,20,5.60
2020,03,04,16,21,5.60
2020,03,04,16,22,5.60
2020,03,04,16,23,5.60
2020,03,04,16,24,5.60
2020,03,04,16,25,5.60
2020,03,04,16,26,5.60
2020,03,04,16,27,5.60
2020,03,04,16,28,5.70
2020,03,04,16,29,5.70
2020,03,04,16,30,5.70
2020,03,04,16,31,5.70
2020,03,04,16,32,5.70
2020,03,04,16,33,5.70
2020,03,04,16,34,5.70
2020,03,04,16,35,5.70
2020,03,04,16,36,5.70
2020,03,04,16,37,5.70
2020,03,04,16,38,5.70
2020,03,04,16,39,5.70
2020,03,04,16,40,5.70
2020,03,04,16,41,5.70
2020,03,04,16,42,5.70
2020,03,04,16,43,5.70
2020,03,04,16,44,5.70
2020,03,04,16,45,5.70
2020,03,04,16,46,5.70
2020,03,04,16,47,5.70
2020,03,04,16,48,5.70
2020,03,04,16,49,5.70
2020,03,04,16,50,5.70
2020,03,04,16,51,5.70
2020,03,04,16,52,5.60
2020,03,04,16,53,5.60
2020,03,04,16,54,5.60
2020,03,04,16,55,5.60
2020,03,04,16,56,5.60
2020,03,04,16,57,5.60
2020,03,04,16,58,5.60
2020,03,04,16,59,5.60
2020,03,04,17,00,5.60
2020,03,04,17,01,5.60
2020,03,04,17,02,5.60
2020,03,04,17,03,5.60
2020,03,04,17,04,5.50
2020,03,04,17,05,5.50
2020,03,04,17,06,5.50
2020,03,04,17,07,5.40
2020,03,04,17,08,5.40
2020,03,04,17,09,5.40
2020,03,04,17,10,5.30
2020,03,04,17,11,5.30
2020,03,04,17,12,5.30
2020,03,04,17,13,5.30
2020,03,04,17,14,5.30
2020,03,04,17,15,5.30
2020,03,04,17,16,5.30
2020,03,04,17,17,5.30
2020,03,04,17,18,5.30
2020,03,04,17,19,5.30
2020,03,04,17,20,5.30
2020,03,04,17,21,5.30
2020,03,04,17,22,5.30
2020,03,04,17,23,5.30
2020,03,04,17,24,5.30
2020,03,04,17,25,5.30
2020,03,04,17,26,5.30
2020,03,04,17,27,5.30
2020,03,04,17,28,5.30
2020,03,04,17,29,5.30
2020,03,04,17,30,5.20
2020,03,04,17,31,5.20
2020,03,04,17,32,5.20
2020,03,04,17,33,5.20
2020,03,04,17,34,5.20
2020,03,04,17,35,5.10
2020,03,04,17,36,5.20
2020,03,04,17,37,5.20
2020,03,04,17,38,5.10
2020,03,04,17,39,5.10
2020,03,04,17,40,5.10
2020,03,04,17,41,5.10
2020,03,04,17,42,5.10
2020,03,04,17,43,5.10
2020,03,04,17,44,5.10
2020,03,04,17,45,5.10
2020,03,04,17,46,5.10
2020,03,04,17,47,5.10
2020,03,04,17,48,5.10
2020,03,04,17,49,5.10
2020,03,04,17,50,5.10
2020,03,04,17,51,5.00
2020,03,04,17,52,4.90
2020,03,04,17,53,4.90
2020,03,04,17,54,4.80
2020,03,04,17,55,4.90
2020,03,04,17,56,4.90
2020,03,04,17,57,4.90
2020,03,04,17,58,4.90
2020,03,04,17,59,5.00
2020,03,04,18,00,5.00
2020,03,04,18,01,5.00
2020,03,04,18,02,5.00
2020,03,04,18,03,5.10
2020,03,04,18,04,5.10
2020,03,04,18,05,5.10
2020,03,04,18,06,5.20